FLOCK 3P-5

Last updated on Wed Feb 14 2018 16:20:22 GMT+0000 (Coordinated Universal Time)

1 41971U 17008Z 18044.92250107 .00001141 00000-0 50168-4 0 9992 2 41971 97.4661 110.4325 0009812 72.2409 287.9898 15.23914964 55103
UTC large
Height (km)
Speed (km/s)
/
Latitude / Longitude
Inclination (degrees)
Orbital Period (minutes)
Azimuth
Elevation
Range (km)
Doppler Factor

Next 0 passes for location: London (51.5072 / 0.1276)

Sorry there are no passes over London.
FLOCK 3P-5